SWR288C EIDW-ELLX

Flight info

Callsign SWR288C
Flight time N/A
Altitude 41000
Route DEXEN2J DEXEN UY124 AMPIT L15 FINMA DCT CHT DCT ITVIP DCT KONAN DCT KOK UL607 FERDI DCT REMBA
Aircraft MD11/H-SDE1E2E3FGHIJ2J3J4J5M1RWXY/LB1D1

Departure

Time 2026-05-06 16:08
Airport Dublin Airport (EIDW)

Arrival

Time N/A
Airport Luxembourg-Findel International Airport (ELLX)
Time Latitude Longitude Altitude Speed Heading
2026-05-06 15:32 53.42389 -6.24461 221 ft 0 kts 135°
2026-05-06 15:49 53.42397 -6.24473 222 ft 4 kts 135°
2026-05-06 15:49 53.42416 -6.24505 220 ft 4 kts 135°
2026-05-06 15:49 53.42435 -6.24537 220 ft 3 kts 135°
2026-05-06 15:49 53.42439 -6.24552 221 ft 4 kts 179°
2026-05-06 15:50 53.42447 -6.24548 220 ft 4 kts 234°
2026-05-06 15:50 53.42452 -6.24538 221 ft 2 kts 242°
2026-05-06 15:50 53.42442 -6.24540 224 ft 4 kts 186°
2026-05-06 15:50 53.42426 -6.24522 219 ft 4 kts 141°
2026-05-06 15:51 53.42419 -6.24511 220 ft 1 kts 135°
2026-05-06 15:51 53.42434 -6.24532 220 ft 4 kts 169°
2026-05-06 15:51 53.42450 -6.24533 223 ft 4 kts 224°
2026-05-06 15:51 53.42462 -6.24503 223 ft 4 kts 237°
2026-05-06 15:52 53.42478 -6.24468 228 ft 4 kts 220°
2026-05-06 15:52 53.42500 -6.24441 220 ft 4 kts 217°
2026-05-06 15:52 53.42509 -6.24429 222 ft 2 kts 219°
2026-05-06 15:54 53.42505 -6.24435 225 ft 1 kts 219°
2026-05-06 15:55 53.42493 -6.24451 228 ft 3 kts 219°
2026-05-06 15:55 53.42473 -6.24483 221 ft 5 kts 226°
2026-05-06 15:55 53.42453 -6.24532 225 ft 6 kts 241°
2026-05-06 15:55 53.42432 -6.24597 225 ft 7 kts 242°
2026-05-06 15:56 53.42407 -6.24674 221 ft 8 kts 242°
2026-05-06 15:56 53.42371 -6.24748 222 ft 8 kts 226°
2026-05-06 15:56 53.42354 -6.24826 224 ft 6 kts 275°
2026-05-06 15:56 53.42370 -6.24862 227 ft 2 kts 325°
2026-05-06 15:57 53.42385 -6.24876 218 ft 3 kts 330°
2026-05-06 15:57 53.42414 -6.24900 222 ft 7 kts 336°
2026-05-06 15:57 53.42486 -6.24953 223 ft 17 kts 336°
2026-05-06 15:57 53.42599 -6.25036 221 ft 18 kts 336°
2026-05-06 15:58 53.42704 -6.25135 223 ft 15 kts 310°
2026-05-06 15:58 53.42749 -6.25204 223 ft 5 kts 331°
2026-05-06 15:58 53.42780 -6.25231 221 ft 5 kts 334°
2026-05-06 15:58 53.42812 -6.25256 222 ft 6 kts 335°
2026-05-06 15:59 53.42855 -6.25287 223 ft 8 kts 336°
2026-05-06 15:59 53.42916 -6.25332 223 ft 12 kts 337°
2026-05-06 15:59 53.43010 -6.25399 222 ft 17 kts 337°
2026-05-06 15:59 53.43127 -6.25483 224 ft 19 kts 336°
2026-05-06 16:00 53.43254 -6.25574 218 ft 20 kts 337°
2026-05-06 16:00 53.43340 -6.25636 223 ft 11 kts 336°
2026-05-06 16:00 53.43390 -6.25637 225 ft 3 kts 36°
2026-05-06 16:00 53.43402 -6.25590 218 ft 8 kts 76°
2026-05-06 16:01 53.43404 -6.25505 218 ft 7 kts 91°
2026-05-06 16:01 53.43400 -6.25423 222 ft 8 kts 95°
2026-05-06 16:01 53.43394 -6.25328 218 ft 9 kts 95°
2026-05-06 16:01 53.43388 -6.25220 225 ft 10 kts 96°
2026-05-06 16:02 53.43381 -6.25099 220 ft 11 kts 95°
2026-05-06 16:02 53.43373 -6.24967 225 ft 12 kts 95°
2026-05-06 16:02 53.43366 -6.24826 222 ft 12 kts 95°
2026-05-06 16:02 53.43358 -6.24676 226 ft 13 kts 95°
2026-05-06 16:03 53.43350 -6.24517 219 ft 14 kts 95°
2026-05-06 16:03 53.43341 -6.24349 221 ft 15 kts 95°
2026-05-06 16:03 53.43332 -6.24173 218 ft 16 kts 95°
2026-05-06 16:03 53.43322 -6.24004 218 ft 11 kts 95°
2026-05-06 16:04 53.43322 -6.23914 218 ft 7 kts 81°
2026-05-06 16:04 53.43346 -6.23869 223 ft 5 kts 32°
2026-05-06 16:04 53.43366 -6.23861 225 ft 0 kts 11°
2026-05-06 16:06 53.43397 -6.23853 223 ft 14 kts
2026-05-06 16:06 53.43480 -6.23873 219 ft 2 kts 317°
2026-05-06 16:07 53.43483 -6.23881 225 ft 0 kts 303°
2026-05-06 16:07 53.43485 -6.23910 222 ft 5 kts 278°
2026-05-06 16:07 53.43491 -6.24006 220 ft 7 kts 274°
2026-05-06 16:07 53.43491 -6.24010 220 ft 1 kts 274°
2026-05-06 16:08 53.43514 -6.24474 220 ft 98 kts 274°
2026-05-06 16:08 53.43607 -6.26195 379 ft 180 kts 274°
2026-05-06 16:08 53.43774 -6.28214 1807 ft 169 kts 282°
2026-05-06 16:08 53.44298 -6.29937 3328 ft 164 kts 303°
2026-05-06 16:09 53.45012 -6.31592 4276 ft 197 kts 304°
2026-05-06 16:09 53.45875 -6.33539 5167 ft 210 kts 305°
2026-05-06 16:09 53.46751 -6.35548 6365 ft 216 kts 303°